Regional Weather Roundup
Issued by NWS Upton, NY

Current Version | Previous Version | Text Only | Print | Product List | Glossary On
Versions: 1 2 3 4 5 6 7 8 9 10 11 12 13 14 15 16 17 18 19 20 21 22 23 24 25 26 27
000 ASUS41 KOKX 251005 RWROKX REGIONAL WEATHER ROUNDUP NATIONAL WEATHER SERVICE NEW YORK NY 600 AM EDT SAT OCT 25 2014 NOTE: "FAIR" INDICATES FEW OR NO CLOUDS BELOW 12,000 FEET WITH NO SIGNIFICANT WEATHER AND/OR OBSTRUCTIONS TO VISIBILITY. NYZ071-072-176-178-NJZ106-104-251100- NEW YORK CITY METRO AREA CITY SKY/WX TMP DP RH WIND PRES REMARKS CENTRAL PARK CLEAR 51 36 56 W7 29.90R LAGUARDIA APRT PTCLDY 53 38 56 W9 29.86R KENNEDY INTL PTCLDY 51 37 58 W8 29.88R NEWARK/LIBERTY PTCLDY 50 36 58 W3 29.88R BRNX BOT. GARD N/A 48 37 66 NW1 29.86F TETERBORO CLEAR 50 35 56 NW6 29.86R $$ NYZ177-179-078>081-251100- LONG ISLAND NEW YORK CITY SKY/WX TMP DP RH WIND PRES REMARKS FARMINGDALE PTCLDY 46 40 79 W6 29.86R ISLIP MOCLDY 46 42 86 W5 29.83R SHIRLEY PTCLDY 48 42 80 NW8 29.85R WESTHAMPTON CLEAR 41 37 86 NW5 29.84S MONTAUK POINT N/A 53 43 68 NW8 29.82R $$ NYZ052-065-067-251100- HUDSON VALLEY CITY SKY/WX TMP DP RH WIND PRES REMARKS WHITE PLAINS PTCLDY 46 38 73 W7 29.85R NEWBURGH PTCLDY 43 37 81 W5 29.86S MONTGOMERY CLEAR 46 35 65 VRB3 29.85R POUGHKEEPSIE PTCLDY 36 34 92 CALM 29.86R ALBANY PTCLDY 44 40 85 CALM 29.84S $$ NJZ001-105-106-008-010-013-015-019>022-104-251100- NEW JERSEY CITY SKY/WX TMP DP RH WIND PRES REMARKS NEWARK/LIBERTY PTCLDY 50 36 58 W3 29.88R TETERBORO CLEAR 50 35 56 NW6 29.86R CALDWELL CLEAR 43 37 79 CALM 29.88S MORRISTOWN CLEAR 43 37 81 CALM 29.88S SOMERVILLE CLEAR 37 34 89 CALM 29.87F SUSSEX CLEAR 40 34 79 CALM 29.87F ANDOVER N/A 37 35 92 CALM 29.88F TRENTON CLEAR 46 33 60 CALM 29.89S MILLVILLE CLEAR 38 37 97 CALM 29.91S ATLANTIC CITY CLEAR 42 38 85 NW9 29.91R WRIGHTSTOWN CLEAR 43 35 73 W3 29.88S HAZE TOMS RIVER CLEAR 46 36 66 NW3 29.90S BELMAR CLEAR 45 34 65 NW7 29.88S $$ PAZ047>061-062-071-251100- EASTERN PENNSYLVANIA CITY SKY/WX TMP DP RH WIND PRES REMARKS PHILADELPHIA CLEAR 49 36 61 W6 29.92S ALLENTOWN CLEAR 41 32 70 CALM 29.90S SCRANTON CLEAR 39 33 79 CALM 29.89F $$ CTZ002-004>006-009-010-012-RIZ004-006-007-MAZ004-011-015-251100- SOUTHERN NEW ENGLAND IN CT CITY SKY/WX TMP DP RH WIND PRES REMARKS BRADLEY INTL CLOUDY 44 39 82 CALM 29.80R HARTFORD MOCLDY 43 41 93 SE6 29.81S DANBURY PTCLDY 37 34 89 CALM 29.86R WTRBRY/OXFORD CLEAR 46 36 66 NW7 29.83S BRIDGEPORT MOCLDY 49 41 74 NW6 29.83R MERIDEN MOCLDY 41 39 93 CALM 29.83R NEW HAVEN PTCLDY 47 39 74 CALM 29.83R CHESTER FAIR 43 43 100 CALM 29.82R GROTON PTCLDY 40 40 100 CALM 29.81R WILLIMANTIC PTCLDY 39 37 92 CALM 29.81R IN RI CITY SKY/WX TMP DP RH WIND PRES REMARKS PROVIDENCE PTCLDY 45 39 79 W5 29.79R BLOCK ISLAND CLEAR 50 39 66 N8 29.80R WESTERLY CLEAR 43 41 93 CALM 29.81R IN MA CITY SKY/WX TMP DP RH WIND PRES REMARKS BOSTON CLEAR 48 40 73 W8 29.75S WORCESTER CLEAR 43 36 76 W12 29.76S WESTFIELD MOCLDY 43 40 89 CALM 29.80R PROVINCETOWN PTCLDY 50 -2 11 NW10 29.74S NANTUCKET CLEAR 47 43 86 W6 29.76R $$ ANZ330-335-338-340-345-350-353-355-251100- COASTAL MARINE OBSERVATIONS STATION/POSITION TIME SKY/WX TEMP WIND PRES VSBY WAVE AIR SEA DIR/SP/G HT/PER (UTC) (F) (DEG/KT/KT) (MB) (MI) (FT/S) NY HARB ENTRANCE NOT AVBL 4S FIRE IS 1000 62 N/A 2/ 9 20S FIRE ISLAND 1000 58 63 310/ 16/ 17 1010.5 3/ 4 23SW MTP 1000 N/A 3/ 4 HUDSON CANYON 1000 59 65 340/ 17/ 19 1009.8 5/ 5 EXECUTION ROCKS 1000 53 61 310/ 8/ 12 N/A WESTERN LI SOUND 1000 53 300/ 10/ 14 N/A 0 CENTRAL LI SOUND 0900 54 63 300/ 16/ 17 N/A 2/ 3 EASTERN LI SOUND 0900 51 62 320/ 10/ 12 N/A ROBBINS REEF 1000 53 300/ 9/ 11 1010.4 $$ >>>>>>>>>>>>>>>>>>>>>>>>>>>> KEY <<<<<<<<<<<<<<<<<<<<<<<<<<< > < > SKY/WX - SKY CONDITION/PRESENT WEATHER < > TMP - TEMPERATURE IN FAHRENHEIT < > DP - DEWPOINT IN FAHRENHEIT < > RH - RELATIVE HUMIDITY IN PERCENT < > WIND - DIRECTION AND SPEED IN MPH < > PRES - MEAN SEA LEVEL PRESSURE IN INCHES OF HG < > WCI - WIND CHILL INDEX < > VSB - VISIBILITY IN MILES < > HX - HEAT INDEX < > TC - TEMPERATURE IN CELSIUS < > VRB - VARIABLE WIND DIRECTION < > < >>>>>>>>>>>>>>>>>>>>>>>>>>>> KEY <<<<<<<<<<<<<<<<<<<<<<<<<<<

USA.gov is the U.S. government's official web portal to all federal, state and local government web resources and services.